TimeEDT,TemperatureF,Dew PointF,Humidity,Sea Level PressureIn,VisibilityMPH,Wind Direction,Wind SpeedMPH,Gust SpeedMPH,PrecipitationIn,Events,Conditions,WindDirDegrees,DateUTC
12:53 AM,84.0,75.0,74,30.08,10.0,East,10.4,-,N/A,,Partly Cloudy,100,2013-08-18 04:53:00
1:53 AM,82.9,75.0,77,30.07,10.0,East,11.5,-,N/A,,Partly Cloudy,100,2013-08-18 05:53:00
2:53 AM,82.9,75.9,79,30.05,10.0,East,9.2,-,N/A,,Unknown,100,2013-08-18 06:53:00
3:53 AM,82.0,77.0,85,30.03,10.0,ESE,8.1,-,0.00,Rain,Light Rain,110,2013-08-18 07:53:00
4:53 AM,82.9,73.9,74,30.03,10.0,East,8.1,-,0.00,,Unknown,90,2013-08-18 08:53:00
5:53 AM,82.9,73.9,74,30.03,10.0,East,6.9,-,N/A,,Unknown,100,2013-08-18 09:53:00
6:53 AM,82.9,73.0,72,30.03,10.0,East,11.5,-,N/A,,Unknown,100,2013-08-18 10:53:00
7:53 AM,84.0,73.9,72,30.05,10.0,ESE,10.4,-,N/A,,Unknown,110,2013-08-18 11:53:00
8:53 AM,84.9,75.0,72,30.06,10.0,ESE,10.4,-,N/A,,Unknown,110,2013-08-18 12:53:00
9:53 AM,87.1,75.9,69,30.08,10.0,East,12.7,-,N/A,,Unknown,100,2013-08-18 13:53:00
10:53 AM,88.0,75.9,67,30.09,10.0,ESE,11.5,-,N/A,,Scattered Clouds,110,2013-08-18 14:53:00
11:53 AM,89.1,75.9,65,30.09,10.0,ESE,13.8,-,N/A,,Scattered Clouds,110,2013-08-18 15:53:00
12:53 PM,89.1,75.9,65,30.08,10.0,East,12.7,-,N/A,,Unknown,100,2013-08-18 16:53:00
1:53 PM,89.1,77.0,67,30.07,10.0,East,17.3,21.9,N/A,,Mostly Cloudy,100,2013-08-18 17:53:00
2:53 PM,82.9,75.9,79,30.06,9.0,ESE,10.4,20.7,0.01,Rain,Light Rain,120,2013-08-18 18:53:00
3:53 PM,84.9,73.9,69,30.04,10.0,East,11.5,-,0.00,,Scattered Clouds,100,2013-08-18 19:53:00
4:53 PM,87.1,77.0,72,30.02,10.0,ESE,13.8,-,N/A,,Unknown,110,2013-08-18 20:53:00
5:53 PM,87.1,75.9,69,30.01,10.0,East,15.0,-,N/A,,Scattered Clouds,100,2013-08-18 21:53:00
6:53 PM,86.0,75.9,72,30.02,10.0,ESE,10.4,-,N/A,,Scattered Clouds,110,2013-08-18 22:53:00
7:53 PM,86.0,75.9,72,30.03,10.0,East,9.2,-,N/A,,Scattered Clouds,100,2013-08-18 23:53:00
8:53 PM,84.9,75.9,74,30.05,10.0,East,9.2,-,N/A,,Unknown,90,2013-08-19 00:53:00
9:53 PM,84.9,75.9,74,30.07,10.0,East,9.2,-,N/A,,Scattered Clouds,90,2013-08-19 01:53:00
10:53 PM,-9999,-9999,N/A,30.09,10.0,East,10.4,-,N/A,,Unknown,100,2013-08-19 02:53:00
11:53 PM,84.0,77.0,79,30.09,10.0,ESE,8.1,-,N/A,,Clear,110,2013-08-19 03:53:00